EW0393 Weather Reports


time (UTC)temp
C
wind
direction
speed
KPH
gust
KPH
rain 1hr
cm
rain 24hr
cm
rain mn
cm
humidity
%
barometer
mb
20260507093603 13 38 3.2 9.7 0.00 0.00 0.00 66 1016.5
20260507092703 13 47 3.2 9.7 0.00 0.00 0.00 70 1016.4
20260507092021 12 59 3.2 9.7 0.00 0.00 0.00 70 1016.5
20260507090903 12 75 3.2 11.3 0.00 0.00 0.00 67 1016.5
20260507090004 12 69 3.2 11.3 0.00 0.00 0.00 68 1016.3
20260507085617 12 78 1.6 6.4 0.00 0.00 0.00 71 1016.4
20260507084719 12 111 1.6 8.0 0.00 0.00 0.00 69 1016.3
20260507083603 12 69 3.2 16.1 0.00 0.00 0.00 68 1016.2
20260507082919 13 75 3.2 16.1 0.00 0.00 0.00 66 1016.1
20260507081803 13 66 3.2 16.1 0.00 0.00 0.00 73 1015.9
20260507080903 11 130 1.6 8.0 0.00 0.00 0.00 71 1016.2
20260507080004 11 103 3.2 11.3 0.00 0.00 0.00 74 1016.2
20260507075403 12 84 3.2 11.3 0.00 0.00 0.00 71 1016.1
20260507074503 11 97 3.2 11.3 0.00 0.00 0.00 72 1016.0
20260507073603 11 89 3.2 11.3 0.00 0.00 0.00 75 1015.9
20260507072703 11 63 4.8 14.5 0.00 0.00 0.00 76 1015.7
20260507071803 11 63 4.8 14.5 0.00 0.00 0.00 77 1015.6
20260507070903 10 72 4.8 12.9 0.00 0.00 0.00 78 1015.6
20260507070222 10 79 3.2 11.3 0.00 0.00 0.00 79 1015.7
20260507065403 10 69 4.8 9.7 0.00 0.00 0.00 80 1015.6
20260507064503 9 73 3.2 8.0 0.00 0.00 0.00 82 1015.7
20260507063603 9 59 4.8 8.0 0.00 0.00 0.00 83 1015.6
20260507062703 8 61 3.2 6.4 0.00 0.00 0.00 83 1015.5
20260507062017 8 61 1.6 6.4 0.00 0.00 0.00 84 1015.4
20260507060903 8 60 1.6 4.8 0.00 0.00 0.00 85 1015.6
20260507060003 8 55 0.0 4.8 0.00 0.00 0.00 86 1015.5
20260507055403 8 46 1.6 4.8 0.00 0.00 0.00 86 1015.4
20260507054721 7 46 0.0 4.8 0.00 0.00 0.00 86 1015.3
20260507053603 7 0 0.0 0.0 0.00 0.00 0.00 86 1015.1
20260507052703 7 0 0.0 0.0 0.00 0.00 0.00 86 1015.0
20260507051803 7 0 0.0 0.0 0.00 0.00 0.00 87 1015.0
20260507051120 7 0 0.0 0.0 0.00 0.00 0.00 87 1015.0
20260507050003 7 0 0.0 0.0 0.00 0.00 0.00 87 1015.0
20260507045403 7 0 0.0 0.0 0.00 0.00 0.00 87 1015.0
20260507044717 7 0 0.0 0.0 0.00 0.00 0.00 87 1014.9
20260507043819 7 0 0.0 0.0 0.00 0.00 0.00 86 1014.9
20260507042703 7 0 0.0 0.0 0.00 0.00 0.00 86 1014.9
20260507041803 7 0 0.0 0.0 0.00 0.00 0.00 86 1014.9
20260507040903 7 0 0.0 0.0 0.00 0.00 0.00 86 1014.9
20260507040004 7 0 0.0 0.0 0.00 0.00 0.00 86 1014.8
20260507035403 7 0 0.0 0.0 0.00 0.00 0.00 86 1014.8
20260507034503 7 0 0.0 0.0 0.00 0.00 0.00 86 1014.8
20260507033603 7 0 0.0 0.0 0.00 0.00 0.00 86 1014.8
20260507032917 7 0 0.0 0.0 0.00 0.00 0.00 86 1014.7
20260507031803 7 0 0.0 0.0 0.00 0.00 0.00 86 1014.7
20260507030903 7 0 0.0 0.0 0.00 0.00 0.00 86 1014.8
20260507030003 7 0 0.0 0.0 0.00 0.00 0.00 86 1014.8
20260507025403 7 0 0.0 0.0 0.00 0.00 0.00 86 1014.7
20260507024503 7 0 0.0 0.0 0.00 0.00 0.00 85 1014.8
20260507023603 7 0 0.0 0.0 0.00 0.00 0.00 85 1014.6
20260507022703 7 0 0.0 0.0 0.00 0.00 0.00 85 1014.7
20260507022020 7 0 0.0 0.0 0.00 0.00 0.00 85 1014.7
20260507020903 7 0 0.0 0.0 0.00 0.00 0.00 85 1014.7
20260507020004 7 0 0.0 0.0 0.00 0.00 0.00 85 1014.6
20260507015403 7 0 0.0 0.0 0.00 0.00 0.00 85 1014.5
20260507014719 7 0 0.0 0.0 0.00 0.00 0.00 85 1014.4
20260507013603 7 0 0.0 3.2 0.00 0.00 0.00 85 1014.3
20260507012703 7 46 1.6 3.2 0.00 0.00 0.00 84 1014.3
20260507012021 7 46 1.6 3.2 0.00 0.00 0.00 84 1014.3
20260507010903 7 46 1.6 3.2 0.00 0.00 0.00 84 1014.4
20260507010003 7 46 1.6 4.8 0.00 0.00 0.00 84 1014.5
20260507005403 7 46 1.6 4.8 0.00 0.00 0.00 84 1014.4
20260507004503 8 46 1.6 4.8 0.00 0.00 0.00 84 1014.4
20260507003603 8 46 0.0 4.8 0.00 0.00 0.00 83 1014.4
20260507002703 8 46 0.0 6.4 0.00 0.00 0.00 83 1014.5
20260507002021 8 46 1.6 6.4 0.00 0.00 0.00 83 1014.6
20260507000903 8 42 3.2 6.4 0.00 0.00 0.00 83 1014.7
20260507000004 8 39 3.2 6.4 0.00 0.00 0.00 83 1014.6
20260506235403 8 40 1.6 4.8 0.00 0.00 0.00 83 1014.7
20260506234504 8 45 3.2 8.0 0.00 0.00 0.00 83 1014.6
20260506233603 8 60 3.2 8.0 0.00 0.00 0.00 83 1014.5
20260506232703 8 55 3.2 8.0 0.00 0.00 0.00 82 1014.5
20260506231803 8 58 4.8 9.7 0.00 0.00 0.00 82 1014.4
20260506230903 8 60 4.8 12.9 0.00 0.00 0.00 82 1014.5
20260506230011 8 56 6.4 12.9 0.00 0.00 0.00 82 1014.4
20260506225403 8 53 6.4 12.9 0.00 0.00 0.00 82 1014.4
20260506224721 8 51 6.4 12.9 0.00 0.00 0.00 82 1014.5
20260506223603 8 40 6.4 12.9 0.00 0.00 0.00 82 1014.5
20260506222703 9 50 4.8 12.9 0.00 0.00 0.00 82 1014.4
20260506222018 9 56 6.4 12.9 0.00 0.00 0.00 82 1014.3
20260506220903 9 50 4.8 12.9 0.00 0.00 0.00 82 1014.2
20260506220004 9 67 1.6 6.4 0.00 0.00 0.00 83 1014.2
20260506215403 9 67 1.6 6.4 0.00 0.00 0.00 83 1014.1
20260506214503 9 73 1.6 14.5 0.00 0.00 0.00 82 1014.1
20260506213603 9 66 4.8 14.5 0.00 0.00 0.00 82 1014.0
20260506212703 9 62 6.4 14.5 0.00 0.00 0.00 83 1014.0
20260506211803 9 57 6.4 16.1 0.00 0.00 0.00 83 1013.9
20260506210903 9 54 8.0 16.1 0.00 0.00 0.00 84 1013.8
20260506210004 10 43 6.4 16.1 0.00 0.00 0.00 84 1013.8
20260506205403 10 40 8.0 16.1 0.00 0.00 0.00 84 1013.8
20260506204717 10 35 8.0 16.1 0.00 0.00 0.00 84 1013.8
20260506203603 10 49 1.6 9.7 0.00 0.00 0.00 84 1013.7
20260506202703 10 40 0.0 4.8 0.00 0.00 0.00 83 1013.7
20260506201803 10 40 0.0 4.8 0.00 0.00 0.00 82 1013.7
20260506201121 10 40 0.0 3.2 0.00 0.00 0.00 82 1013.7
20260506200004 10 40 1.6 6.4 0.00 0.00 0.00 80 1013.7
20260506195403 10 40 1.6 6.4 0.00 0.00 0.00 80 1013.6
20260506194503 10 38 3.2 6.4 0.00 0.00 0.00 79 1013.5
20260506193603 10 33 3.2 6.4 0.00 0.00 0.00 79 1013.4
20260506192917 10 34 3.2 8.0 0.00 0.00 0.00 78 1013.3
20260506191803 10 43 4.8 8.0 0.00 0.00 0.00 77 1013.3
20260506190903 10 41 4.8 9.7 0.00 0.00 0.00 76 1013.3
20260506190004 10 37 4.8 9.7 0.00 0.00 0.00 76 1013.2
20260506185403 11 38 4.8 9.7 0.00 0.00 0.00 75 1013.2
20260506184503 11 35 4.8 14.5 0.00 0.00 0.00 75 1013.1
20260506183820 11 36 6.4 14.5 0.00 0.00 0.00 75 1013.1
20260506182703 11 38 6.4 14.5 0.00 0.00 0.00 75 1013.0
20260506181803 11 33 8.0 14.5 0.00 0.00 0.00 73 1012.9
20260506180903 12 20 8.0 16.1 0.00 0.00 0.00 70 1012.7
20260506180004 12 9 8.0 16.1 0.00 0.00 0.00 70 1012.7
20260506175403 12 2 9.7 16.1 0.00 0.00 0.00 70 1012.5
20260506174503 12 350 8.0 16.1 0.00 0.00 0.00 70 1012.4
20260506173603 12 338 9.7 16.1 0.00 0.00 0.00 68 1012.3
20260506172703 13 352 9.7 16.1 0.00 0.00 0.00 68 1012.3
20260506171803 12 4 9.7 16.1 0.00 0.00 0.00 69 1012.4
20260506170903 13 357 8.0 16.1 0.00 0.00 0.00 69 1012.2
20260506170004 13 8 9.7 16.1 0.00 0.00 0.00 67 1012.3
20260506165403 13 353 9.7 16.1 0.00 0.00 0.00 68 1012.3
20260506164503 13 348 9.7 16.1 0.00 0.00 0.00 69 1012.3
20260506163603 12 334 9.7 17.7 0.00 0.00 0.00 68 1012.3
20260506162703 12 328 11.3 17.7 0.00 0.00 0.00 69 1012.4
20260506161803 12 351 9.7 17.7 0.00 0.00 0.00 69 1012.4
20260506160903 12 6 9.7 17.7 0.00 0.00 0.00 70 1012.4
20260506160221 12 358 9.7 19.3 0.00 0.00 0.00 70 1012.4
20260506155618 12 350 11.3 19.3 0.00 0.00 0.00 70 1012.4
20260506154503 12 4 11.3 19.3 0.00 0.00 0.00 69 1012.5
20260506153603 12 8 11.3 20.9 0.00 0.00 0.00 69 1012.4
20260506152703 12 25 11.3 20.9 0.00 0.00 0.00 68 1012.4
20260506151803 12 16 11.3 22.5 0.00 0.00 0.00 67 1012.5
20260506150903 12 4 11.3 22.5 0.00 0.00 0.00 68 1012.3
20260506150004 12 17 14.5 22.5 0.00 0.00 0.00 68 1012.3
20260506145403 12 16 12.9 22.5 0.00 0.00 0.00 69 1012.3
20260506144503 12 22 14.5 22.5 0.00 0.00 0.00 68 1012.1
20260506143603 13 23 14.5 24.1 0.00 0.00 0.00 68 1012.1
20260506142703 13 18 14.5 24.1 0.00 0.00 0.00 66 1012.1
20260506141803 13 20 14.5 24.1 0.00 0.00 0.00 66 1012.1
20260506140903 12 15 16.1 24.1 0.00 0.00 0.00 67 1012.1
20260506140004 13 359 16.1 24.1 0.00 0.00 0.00 67 1012.0
20260506135403 13 10 16.1 24.1 0.00 0.00 0.00 66 1012.1
20260506134503 13 15 16.1 24.1 0.00 0.00 0.00 66 1012.1
20260506133818 13 357 16.1 24.1 0.00 0.00 0.00 66 1012.2
20260506132703 13 357 14.5 24.1 0.00 0.00 0.00 65 1012.1
20260506131803 12 23 12.9 22.5 0.00 0.00 0.00 67 1012.1
20260506130903 12 19 12.9 24.1 0.00 0.00 0.00 66 1012.2
20260506130218 13 5 14.5 24.1 0.00 0.00 0.00 64 1012.1
20260506125403 13 348 14.5 22.5 0.00 0.00 0.00 62 1012.1
20260506124503 13 357 12.9 22.5 0.00 0.00 0.00 63 1012.0
20260506123603 13 345 12.9 22.5 0.00 0.00 0.00 63 1012.0
20260506122703 13 336 14.5 22.5 0.00 0.00 0.00 63 1012.0
20260506121803 14 349 16.1 22.5 0.00 0.00 0.00 62 1012.0
20260506120903 15 328 14.5 22.5 0.00 0.00 0.00 62 1011.9
20260506120219 15 325 14.5 24.1 0.00 0.00 0.00 61 1012.0
20260506115403 15 331 14.5 24.1 0.00 0.00 0.00 61 1012.0
20260506114503 15 334 16.1 25.7 0.00 0.00 0.00 66 1011.9
20260506113603 15 331 14.5 25.7 0.00 0.00 0.00 68 1011.9
20260506112703 14 320 12.9 22.5 0.00 0.00 0.00 74 1012.1
20260506111803 12 333 9.7 17.7 0.00 0.00 0.00 84 1012.2
20260506110903 11 338 11.3 20.9 0.00 0.00 0.00 84 1012.1
20260506110004 11 341 14.5 25.7 0.00 0.00 0.00 82 1012.2
20260506105403 11 331 16.1 25.7 0.00 0.00 0.00 80 1012.3
20260506104503 11 315 16.1 25.7 0.00 0.00 0.00 79 1012.0
20260506103603 11 321 14.5 24.1 0.00 0.00 0.00 82 1011.9
20260506102703 11 313 16.1 24.1 0.00 0.00 0.00 80 1012.1
20260506101803 12 335 16.1 25.7 0.00 0.00 0.00 75 1012.1
20260506100903 13 328 17.7 25.7 0.00 0.00 0.00 67 1011.9
20260506100004 13 326 17.7 24.1 0.00 0.00 0.00 67 1011.9
20260506095403 13 324 17.7 30.6 0.00 0.00 0.00 68 1012.1
20260506094503 13 343 17.7 30.6 0.00 0.00 0.00 72 1012.1
20260506093821 12 346 17.7 30.6 0.00 0.00 0.00 74 1012.1